Location: Aldenham
(51.6667°N, 0.3500°W)
Time: 17:04:19
(UTC+00:00)

Vanguard 2 Rocket - Pass Details

Date: 18 February 2026
Orbit: 553 x 3286 km, 32.9° (Epoch: 11 March)

Event Time Altitude Azimuth Distance (km) Brightness Sun altitude
Rises 15:49:05 0° 258° (WSW) 6,753 12.6 11.9°
Reaches altitude 10° 15:54:56 10° 249° (WSW) 5,342 12.9 11.2°
Maximum altitude 16:06:04 27° 200° (SSW) 3,164 10.6 9.7°
Drops below altitude 10° 16:13:33 10° 147° (SSE) 3,501 9.9 8.7°
Sets 16:16:29 0° 135° (SE) 4,131 10.1 8.4°
